Erie, PA

4:42 PM EST on November 17, 2017 (GMT -0500)
Erie International

Weather History for KERI - November, 2013

Change the Weather History Date:

Saturday, November 16, 2013

  Actual Average Record
Temperature  
Mean Temperature 51 °F 43 °F  
Max Temperature 60 °F 50 °F 70 °F (1955)
Min Temperature 42 °F 37 °F 14 °F (1933)
Degree Days  
Heating Degree Days 14 22  
Month to date heating degree days 334 307  
Since 1 July heating degree days 778 810  
Cooling Degree Days 0 0  
Month to date cooling degree days 0 0  
Year to date cooling degree days 706 638  
Growing Degree Days 1 (Base 50)    
Moisture  
Dew Point 38 °F    
Average Humidity 56    
Maximum Humidity 70    
Minimum Humidity 42    
Precipitation  
Precipitation 0.00 in 0.14 in 0.98 in (1927)
Month to date precipitation 2.69 2.08  
Year to date precipitation 46.75 36.57  
Snow  
Snow 0.00 in 0.30 in - ()
Month to date snowfall 2.3 3.0  
Since 1 July snowfall 2.6 3.2  
Since 1 September snowfall 2.6 3.2  
Snow Depth 0.00 in    
Sea Level Pressure  
Sea Level Pressure 30.11 in    
Wind  
Wind Speed 11 mph (South)    
Max Wind Speed 21 mph    
Max Gust Speed 29 mph    
Visibility 10 miles    
Events      
T = Trace of Precipitation, MM = Missing Value Source: NWS Daily Summary

Daily Weather History Graph

Daily Weather History Graph

Search for Another Location

Airport or City:

Trip Planner

Search our weather history database for the weather conditions in past years. The results will help you decide how hot, cold, wet, or windy it might be!

Date:

Astronomy

Nov. 16, 2013 Rise Set
Actual Time 7:12 AM EST 4:58 PM EST
Civil Twilight 6:42 AM EST 5:28 PM EST
Nautical Twilight 6:08 AM EST 6:02 PM EST
Astronomical Twilight 5:35 AM EST 6:35 PM EST
Moon 4:33 PM EST (11/16) 6:06 AM EST (11/16)
Length of Visible Light 10h 46m
Length of Day
9h 46m
Waxing Gibbous, 99% of the Moon is Illuminated
Nov 16
Waxing Gibbous
Nov 17
Full
Nov 25
Last Quarter
Dec 2
New
Dec 9
First Quarter

Hourly Weather History & Observations

Time (EST) Temp. Windchill Dew Point Humidity Pressure Visibility Wind Dir Wind Speed Gust Speed Precip Events Conditions
12:51 AM 46.9 °F - 28.0 °F 48% 30.15 in 10.0 mi SSW 10.4 mph - N/A   Clear
1:51 AM 45.0 °F 41.8 °F 28.9 °F 53% 30.16 in 10.0 mi SSW 5.8 mph - N/A   Clear
2:51 AM 45.0 °F 41.2 °F 30.0 °F 56% 30.17 in 10.0 mi South 6.9 mph - N/A   Overcast
3:51 AM 45.0 °F 42.6 °F 30.0 °F 56% 30.16 in 10.0 mi SSW 4.6 mph - N/A   Mostly Cloudy
4:51 AM 44.1 °F 40.8 °F 30.9 °F 60% 30.16 in 10.0 mi South 5.8 mph - N/A   Clear
5:51 AM 43.0 °F 40.3 °F 32.0 °F 65% 30.17 in 10.0 mi SSW 4.6 mph - N/A   Clear
6:51 AM 44.1 °F 42.5 °F 33.1 °F 65% 30.19 in 10.0 mi SW 3.5 mph - N/A   Clear
7:51 AM 43.0 °F 39.5 °F 34.0 °F 71% 30.23 in 10.0 mi South 5.8 mph - N/A   Clear
8:51 AM 48.0 °F - 37.0 °F 66% 30.22 in 10.0 mi South 8.1 mph - N/A   Clear
9:51 AM 52.0 °F - 39.0 °F 61% 30.19 in 10.0 mi SSE 8.1 mph 18.4 mph N/A   Clear
10:51 AM 54.0 °F - 39.9 °F 59% 30.19 in 10.0 mi South 13.8 mph - N/A   Clear
11:51 AM 57.0 °F - 41.0 °F 55% 30.17 in 10.0 mi South 13.8 mph - N/A   Clear
12:51 PM 57.9 °F - 39.9 °F 51% 30.14 in 10.0 mi South 11.5 mph 18.4 mph N/A   Mostly Cloudy
1:51 PM 59.0 °F - 41.0 °F 51% 30.11 in 10.0 mi South 9.2 mph - N/A   Overcast
2:51 PM 59.0 °F - 41.0 °F 51% 30.08 in 10.0 mi South 10.4 mph 20.7 mph N/A   Mostly Cloudy
3:51 PM 59.0 °F - 41.0 °F 51% 30.06 in 10.0 mi South 10.4 mph 20.7 mph N/A   Clear
4:51 PM 57.9 °F - 41.0 °F 53% 30.05 in 10.0 mi SSE 13.8 mph - N/A   Scattered Clouds
5:51 PM 57.0 °F - 41.0 °F 55% 30.04 in 10.0 mi South 13.8 mph 20.7 mph N/A   Clear
6:51 PM 57.0 °F - 42.1 °F 57% 30.04 in 10.0 mi South 16.1 mph 23.0 mph N/A   Clear
7:51 PM 57.0 °F - 43.0 °F 59% 30.03 in 10.0 mi South 13.8 mph - N/A   Clear
8:51 PM 57.0 °F - 43.0 °F 59% 30.01 in 10.0 mi South 15.0 mph - N/A   Clear
9:51 PM 57.9 °F - 43.0 °F 58% 29.99 in 10.0 mi South 18.4 mph 27.6 mph N/A   Clear
10:51 PM 57.0 °F - 44.1 °F 62% 29.96 in 10.0 mi South 17.3 mph 27.6 mph N/A   Clear
11:51 PM 57.0 °F - 44.1 °F 62% 29.95 in 10.0 mi South 18.4 mph 26.5 mph N/A   Clear